[[{"header":{"parameterUnit":"m.s-1","parameterCategory":1,"la1":30.2991,"la2":30.254,"lo1":-89.0895,"lo2":-89.0444,"dy":0.0017,"dx":0.0017,"nx":28,"ny":28,"refTime":"2025-03-08T03:00:00:Z","depth":0,"parameterNumber":2,"parameterNumberName":"U-component_of_WINDS"},"data":[0,0,0,0,0,0,0,0,0,0,0,0,0,0,0,0,0,0,0,0,0,0,0,0,0,0,0,0,0,0,0,0,0,0,0,0,0,0,0,0,0,0,0,0,0,0,0,0,0,0,0,0,0,0,0,0,0,0,-3.0155,-3.0156,0,-3.0257,-3.0259,-3.026,-3.0276,-3.0275,-3.0274,-3.0274,-3.0378,-3.0382,-3.0386,0,0,0,0,0,0,0,0,0,0,0,0,0,-2.9972,-2.9975,-3.0154,-3.0156,-3.0157,-3.0257,-3.0259,-3.026,-3.0276,-3.0275,-3.0274,-3.0273,-3.0377,-3.0382,-3.0386,0,0,0,0,0,0,0,0,0,0,0,0,0,-3.006,-2.9976,-3.0154,-3.0177,-3.018,-3.0257,-3.0259,-3.026,-3.0277,-3.0275,-3.0274,-3.0273,-3.0376,-3.0381,-3.0387,-3.0447,0,0,-3.0403,-3.0406,0,0,0,0,0,0,0,0,-3.0055,-3.0067,-3.0173,-3.0176,-3.0179,-3.0253,-3.0233,-3.0323,-3.0277,-3.024,-3.0274,-3.0272,-3.0338,-3.0346,-3.0368,-3.0452,-3.0457,-3.0404,-3.0407,-3.0409,-3.0411,0,0,0,0,0,0,0,-3.0049,-3.0063,-3.0195,-3.0174,-3.0178,-3.0182,-3.0193,-3.025,-3.0295,-3.0243,-3.0245,-3.0257,-3.0339,-3.0363,-3.0371,-3.0458,-3.0404,-3.0408,-3.0412,-3.0414,-3.0597,-3.0598,0,0,0,0,0,0,-3.0039,-3.0058,-3.0192,-3.0198,-3.0113,-3.0187,-3.0199,-3.023,-3.0295,-3.0303,-3.0258,-3.0257,-3.0355,-3.0365,-3.0375,-3.0449,-3.0409,-3.0414,-3.0418,-3.0595,-3.0597,-3.0599,0,0,0,0,0,0,-3.0035,-3.0051,-3.0188,-3.0128,-3.0146,-3.0191,-3.0226,-3.0233,-3.0257,-3.0306,-3.0314,-3.0274,-3.0354,-3.0367,-3.0429,-3.0453,-3.0417,-3.0422,-3.0593,-3.0596,-3.0598,-3.0599,0,0,0,0,0,0,-3.003,-3.0049,-3.0073,-3.0129,-3.0149,-3.024,-3.0228,-3.0236,-3.0266,-3.0267,-3.0323,-3.0331,-3.0354,-3.0421,-3.0434,-3.046,-3.0426,-3.0591,-3.0594,-3.0597,-3.0597,-3.0601,-3.0605,0,0,0,0,0,-3.0023,-3.0069,-3.0074,-3.009,-3.018,-3.0242,-3.0253,-3.0279,-3.0268,-3.0292,-3.0324,-3.0329,-3.0449,-3.0427,-3.0443,-3.047,-3.059,-3.0593,-3.0597,-3.0595,-3.06,-3.0605,0,0,0,0,0,0,-3.0014,-3.0077,-3.0083,-3.0148,-3.019,-3.0244,-3.0275,-3.0284,-3.0329,-3.0327,-3.0357,-3.0369,-3.0429,-3.0456,-3.0431,-3.0532,-3.0518,-3.0525,-3.0512,-3.0517,-3.0521,-3.0512,-3.0431,0,0,0,0,0,-3.002,-3.0065,-3.0118,-3.017,-3.0191,-3.0229,-3.0257,-3.0274,-3.0318,-3.0335,-3.0371,-3.0413,-3.046,-3.049,-3.0537,-3.0602,-3.0614,-3.0628,-3.0632,-3.0635,-3.064,-3.0676,-3.0682,-3.061,-3.061,-3.061,0,0,-3.0032,-3.0072,-3.0099,-3.017,-3.0203,-3.0249,-3.0244,-3.0293,-3.0327,-3.0343,-3.0403,-3.0431,-3.048,-3.0543,-3.0573,-3.0568,-3.0663,-3.064,-3.0642,-3.0645,-3.068,-3.0687,-3.0693,-3.0613,-3.0612,-3.0612,0,0,-3.0077,-3.0113,-3.016,-3.0194,-3.0246,-3.0271,-3.0283,-3.0336,-3.0355,-3.0417,-3.0429,-3.047,-3.0551,-3.0585,-3.0613,-3.0673,-3.0679,-3.0687,-3.0706,-3.074,-3.0746,-3.0751,-3.0771,-3.0778,-3.0692,-3.0692,-3.0692,0,-3.0086,-3.0155,-3.0183,-3.0231,-3.0262,-3.0279,-3.0327,-3.0359,-3.0422,-3.0443,-3.0436,-3.0538,-3.0572,-3.0643,-3.0658,-3.0681,-3.0694,-3.068,-3.0743,-3.0749,-3.0754,-3.0773,-3.078,-3.0693,-3.0693,-3.0693,-3.0692,0,-3.0163,-3.0211,-3.0243,-3.0304,-3.0338,-3.0386,-3.0421,-3.0453,-3.0467,-3.0493,-3.0555,-3.0597,-3.0651,-3.067,-3.0684,-3.0743,-3.0738,-3.0737,-3.0723,-3.0761,-3.0779,-3.0787,-3.0693,-3.0693,-3.0693,-3.0693,0,0,-3.0203,-3.028,-3.0291,-3.0319,-3.0377,-3.0415,-3.0464,-3.0517,-3.0543,-3.0587,-3.0628,-3.0697,-3.0696,-3.0728,-3.0746,-3.0776,-3.0819,-3.0772,-3.0773,-3.0777,-3.0886,-3.0885,-3.0893,-3.0824,-3.0826,-3.0827,-3.0881,0,-3.0254,-3.0341,-3.0368,-3.044,-3.0485,-3.0502,-3.0545,-3.0585,-3.0611,-3.0653,-3.0682,-3.0729,-3.0725,-3.0745,-3.0776,-3.0807,-3.0841,-3.0804,-3.0862,-3.0863,-3.0847,-3.0903,-3.0902,-3.095,-3.0888,-3.089,-3.0891,0,-3.0324,-3.0369,-3.0446,-3.0499,-3.0519,-3.0556,-3.0607,-3.0647,-3.0693,-3.071,-3.0746,-3.0762,-3.0813,-3.0799,-3.0869,-3.0844,-3.0869,-3.0888,-3.0891,-3.0896,-3.0878,-3.0907,-3.0967,-3.0973,-3.0902,-3.0902,-3.0901,0,-3.0344,-3.0424,-3.0481,-3.0504,-3.0567,-3.0593,-3.0621,-3.0666,-3.0696,-3.0741,-3.0761,-3.0812,-3.0839,-3.0878,-3.0906,-3.0893,-3.0974,-3.0962,-3.0989,-3.0988,-3.1003,-3.1002,-3.1066,-3.1023,-3.1023,-3.1023,-3.1023,0,-3.0397,-3.0443,-3.049,-3.0524,-3.0577,-3.0607,-3.0658,-3.0687,-3.0727,-3.0767,-3.0786,-3.0823,-3.086,-3.0902,-3.0925,-3.098,-3.0992,-3.1007,-3.1012,-3.1004,-3.1002,-3.102,-3.1016,-3.1025,-3.1024,-3.1024,-3.1024,0,-3.0427,-3.0461,-3.0523,-3.0578,-3.0593,-3.0629,-3.0676,-3.071,-3.0737,-3.0788,-3.0801,-3.0844,-3.0895,-3.0928,-3.0993,-3.1008,-3.1067,-3.1073,-3.1051,-3.1053,-3.1078,-3.1074,-3.1154,-3.1165,-3.1116,-3.1117,-3.1117,0,-3.0457,-3.0493,-3.0552,-3.058,-3.0608,-3.0653,-3.0684,-3.0716,-3.0748,-3.0804,-3.0831,-3.0883,-3.0926,-3.1006,-3.1042,-3.1092,-3.1098,-3.1122,-3.1105,-3.1096,-3.1096,-3.1093,-3.1096,-3.1124,-3.1125,-3.1125,-3.1125,0,-3.0507,-3.0522,-3.0566,-3.0616,-3.0653,-3.0694,-3.0735,-3.0757,-3.0797,-3.0831,-3.0883,-3.0917,-3.0983,-3.1034,-3.1087,-3.1115,-3.1126,-3.1131,-3.1139,-3.113,-3.1116,-3.1122,-3.1057,-3.1128,-3.1128,-3.1128,-3.1128,-3.1127,-3.0537,-3.0569,-3.0615,-3.0664,-3.0699,-3.0737,-3.0771,-3.0803,-3.0847,-3.0903,-3.092,-3.0974,-3.1019,-3.1092,-3.1121,-3.1164,-3.1161,-3.1173,-3.1176,-3.1179,-3.1178,-3.1111,-3.1174,-3.1174,-3.1174,-3.1174,-3.1174,0,-3.0586,-3.0617,-3.0661,-3.0718,-3.0756,-3.0765,-3.0811,-3.0842,-3.0889,-3.0931,-3.0973,-3.1033,-3.1083,-3.1124,-3.1175,-3.1201,-3.1207,-3.1213,-3.1211,-3.1217,-3.1178,-3.1165,-3.1207,-3.1207,-3.1207,-3.1207,-3.1207,-3.1207,-3.0616,-3.0671,-3.0691,-3.0763,-3.0794,-3.0847,-3.0872,-3.0908,-3.0941,-3.1007,-3.1048,-3.1075,-3.1116,-3.1171,-3.1217,-3.1228,-3.1245,-3.1249,-3.1261,-3.1223,-3.122,-3.1216,-3.1203,-3.1253,-3.1253,-3.1296,-3.1296,-3.1296]},{"header":{"parameterUnit":"m.s-1","parameterCategory":1,"la1":30.2991,"la2":30.254,"lo1":-89.0895,"lo2":-89.0444,"dy":0.0017,"dx":0.0017,"nx":28,"ny":28,"refTime":"2025-03-08T03:00:00:Z","depth":0,"parameterNumber":3,"parameterNumberName":"V-component_of_WINDS"},"data":[0,0,0,0,0,0,0,0,0,0,0,0,0,0,0,0,0,0,0,0,0,0,0,0,0,0,0,0,0,0,0,0,0,0,0,0,0,0,0,0,0,0,0,0,0,0,0,0,0,0,0,0,0,0,0,0,0,0,3.0339,3.0339,0,3.0346,3.0346,3.0346,3.0335,3.0334,3.0334,3.0334,3.0342,3.0342,3.0343,0,0,0,0,0,0,0,0,0,0,0,0,0,3.0321,3.0321,3.0339,3.0339,3.034,3.0346,3.0346,3.0346,3.0335,3.0334,3.0334,3.0334,3.0342,3.0342,3.0343,0,0,0,0,0,0,0,0,0,0,0,0,0,3.0328,3.0321,3.0339,3.0335,3.0334,3.0346,3.0346,3.0346,3.0335,3.0334,3.0334,3.0333,3.0341,3.0342,3.0343,3.036,0,0,3.0346,3.0346,0,0,0,0,0,0,0,0,3.0328,3.0329,3.0335,3.0335,3.0335,3.0339,3.0342,3.0351,3.0335,3.0335,3.0334,3.0333,3.0341,3.0342,3.0345,3.036,3.0361,3.0346,3.0346,3.0347,3.0347,0,0,0,0,0,0,0,3.0327,3.0329,3.0342,3.0335,3.0335,3.0333,3.0334,3.0344,3.0341,3.0335,3.0334,3.0335,3.0341,3.0344,3.0345,3.0361,3.0346,3.0346,3.0347,3.0347,3.0394,3.0395,0,0,0,0,0,0,3.0327,3.0328,3.0342,3.0342,3.033,3.0334,3.0335,3.0338,3.0341,3.0341,3.0335,3.0334,3.0343,3.0344,3.0345,3.0367,3.0347,3.0347,3.0348,3.0393,3.0394,3.0395,0,0,0,0,0,0,3.0327,3.0328,3.0342,3.0335,3.0337,3.0335,3.0339,3.0339,3.0341,3.0342,3.0341,3.0338,3.0342,3.0344,3.0357,3.0367,3.0348,3.0349,3.0392,3.0394,3.0395,3.041,0,0,0,0,0,0,3.0326,3.0328,3.0333,3.0335,3.0337,3.0352,3.034,3.0339,3.0343,3.0341,3.0344,3.0344,3.0342,3.0356,3.0358,3.0368,3.0349,3.0391,3.0393,3.0394,3.0408,3.0411,3.0414,0,0,0,0,0,3.0325,3.0337,3.0334,3.0335,3.0343,3.0353,3.0354,3.035,3.0344,3.035,3.035,3.0344,3.0366,3.0357,3.0359,3.037,3.0391,3.0392,3.0394,3.0407,3.0411,3.0413,0,0,0,0,0,0,3.0336,3.0337,3.0333,3.0346,3.0349,3.0351,3.0358,3.0354,3.036,3.0358,3.0354,3.0355,3.037,3.0371,3.0362,3.0388,3.0377,3.0379,3.0386,3.039,3.0392,3.0392,3.035,0,0,0,0,0,3.034,3.0347,3.0347,3.0358,3.036,3.0359,3.0363,3.0361,3.0364,3.0366,3.0367,3.0371,3.038,3.0385,3.0392,3.0409,3.041,3.0417,3.042,3.0422,3.0424,3.0436,3.0439,3.04,3.04,3.04,0,0,3.0348,3.0349,3.0354,3.0361,3.0363,3.0372,3.036,3.0369,3.0376,3.0367,3.038,3.0381,3.0386,3.0402,3.0409,3.0404,3.0436,3.0424,3.0426,3.0427,3.0438,3.0442,3.0445,3.0401,3.0401,3.0401,0,0,3.0367,3.0368,3.0378,3.0381,3.0385,3.0385,3.0388,3.0391,3.0391,3.0404,3.0399,3.0407,3.042,3.0425,3.0429,3.0453,3.0449,3.0456,3.047,3.0481,3.0484,3.0487,3.0497,3.0501,3.0458,3.0458,3.0458,0,3.0376,3.0387,3.0384,3.0394,3.0398,3.0391,3.0403,3.0407,3.0413,3.0417,3.0411,3.0429,3.0432,3.045,3.0456,3.0459,3.0463,3.0455,3.0484,3.0487,3.0489,3.0499,3.0503,3.0459,3.0459,3.0459,3.0458,0,3.04,3.0408,3.0416,3.0423,3.0428,3.0439,3.0439,3.0445,3.0443,3.0444,3.0459,3.0462,3.0471,3.0475,3.0472,3.0494,3.049,3.0484,3.0473,3.0494,3.0503,3.0507,3.046,3.046,3.0459,3.0459,0,0,3.0423,3.043,3.0433,3.0438,3.0443,3.045,3.0462,3.0471,3.0477,3.0483,3.0494,3.0506,3.0502,3.0506,3.0505,3.0515,3.0537,3.0508,3.0508,3.0514,3.0562,3.0567,3.0572,3.0534,3.0534,3.0535,3.0563,0,3.0443,3.0462,3.0461,3.048,3.0489,3.0484,3.0495,3.05,3.0502,3.0511,3.0514,3.0524,3.0516,3.0519,3.0529,3.0532,3.0546,3.053,3.0545,3.0546,3.0544,3.0576,3.0581,3.0606,3.0566,3.0567,3.0567,0,3.0468,3.0475,3.0495,3.0502,3.0506,3.0515,3.0525,3.0533,3.054,3.0541,3.0548,3.0546,3.056,3.0549,3.0569,3.0558,3.0565,3.0567,3.0568,3.057,3.0558,3.0579,3.0614,3.0618,3.0572,3.0572,3.0571,0,3.0485,3.05,3.0514,3.0518,3.0526,3.0533,3.0537,3.0543,3.055,3.0559,3.0564,3.0574,3.058,3.0589,3.0591,3.0582,3.0612,3.06,3.0614,3.0614,3.062,3.062,3.0657,3.0624,3.0623,3.0623,3.0623,0,3.0507,3.0519,3.0522,3.0531,3.0546,3.0546,3.0561,3.0564,3.0571,3.0582,3.0579,3.0589,3.059,3.0602,3.0603,3.0621,3.0623,3.0626,3.0626,3.0626,3.0626,3.063,3.0629,3.0624,3.0624,3.0624,3.0624,0,3.0528,3.053,3.0545,3.0553,3.0555,3.0566,3.0573,3.0582,3.0585,3.0599,3.0602,3.0607,3.062,3.0623,3.0639,3.064,3.0662,3.066,3.0659,3.0659,3.0673,3.0672,3.0715,3.0722,3.0683,3.0683,3.0684,0,3.0542,3.0552,3.0561,3.0568,3.0572,3.0583,3.059,3.0592,3.0599,3.061,3.0619,3.0633,3.0643,3.0666,3.0671,3.0684,3.0683,3.0697,3.0685,3.0686,3.0685,3.0684,3.0686,3.07,3.07,3.07,3.0701,0,3.0567,3.0568,3.0578,3.059,3.0599,3.0607,3.0616,3.0622,3.0625,3.0634,3.0648,3.0657,3.0674,3.0688,3.0702,3.0707,3.0705,3.0705,3.0709,3.0709,3.0709,3.0711,3.0666,3.0704,3.0703,3.0703,3.0703,3.0703,3.0586,3.0595,3.0604,3.0616,3.0623,3.0632,3.0642,3.0647,3.0658,3.0672,3.0673,3.0689,3.0699,3.0717,3.0724,3.0738,3.0733,3.0739,3.074,3.0742,3.0744,3.0707,3.074,3.074,3.074,3.074,3.074,0,3.0612,3.0618,3.0629,3.0642,3.0652,3.065,3.066,3.0669,3.0683,3.0693,3.0704,3.0722,3.0736,3.0744,3.0759,3.0769,3.0768,3.0773,3.0772,3.0774,3.0746,3.0742,3.0773,3.0773,3.0773,3.0773,3.0773,3.0773,3.0627,3.0644,3.0646,3.0668,3.0674,3.0689,3.0696,3.0705,3.0713,3.0733,3.0745,3.075,3.076,3.0776,3.079,3.0792,3.0798,3.0803,3.0805,3.0779,3.0775,3.0772,3.0768,3.0804,3.0804,3.0832,3.0832,3.0832]}]]